Location: Izdebno
(52.6670°N, 16.2170°E)
Time: 15:32:19
(UTC+01:00)

Vanguard 2 - Pass Details

Date: 30 January 2023
Orbit: 553 x 2927 km, 32.9° (Epoch: 24 March)

Event Time Altitude Azimuth Distance (km) Brightness Sun altitude
Rises 22:55:25 0° 224° (SW) 6,056 - -52.1°
Reaches altitude 10° 22:59:46 10° 215° (SW) 5,307 - -52.4°
Maximum altitude 23:13:15 32° 161° (SSE) 4,175 - -53.2°
Drops below altitude 10° 23:27:19 10° 107° (ESE) 5,566 - -53.9°
Sets 23:31:59 0° 99° (E) 6,382 - -54.1°
